Regional Weather Roundup
Issued by NWS

Home | Current Version | Previous Version | Text Only | Print | Product List | Glossary Off
Versions: 1 2 3 4 5 6 7 8 9 10 11 12 13 14 15 16 17 18 19 20 21 22 23 24 25 26 27 28 29 30 31 32 33 34 35 36 37 38 39 40 41 42 43 44 45 46 47 48 49 50

000
ASUS43 KMKX 120200
RWRWI

WISCONSIN REGIONAL WEATHER ROUNDUP
NATIONAL WEATHER SERVICE MILWAUKEE/SULLIVAN WI
900 PM CDT FRI JUL 11 2014

NOTE: "FAIR" INDICATES FEW OR NO CLOUDS BELOW 12,000 FEET WITH NO
SIGNIFICANT WEATHER AND/OR OBSTRUCTIONS TO VISIBILITY.

WIZ001-002-006>008-014>016-023>028-120300-
NORTHWEST WISCONSIN

CITY           SKY/WX    TMP DP  RH WIND       PRES   REMARKS
SUPERIOR ARPT  PTCLDY    73  69  87 SW8       29.94S
ASHLAND        CLOUDY    71  64  78 SW7       29.97S
HAYWARD        CLOUDY    70  66  87 S7        30.00S
SIREN          MOCLDY    72  68  87 S5        29.98S
RICE LAKE      CLOUDY    71  65  82 SE5       30.02S
LADYSMITH      CLOUDY    71  65  81 S3        30.05R
EAU CLAIRE     NOT AVBL
MENOMONIE      CLOUDY    74  69  85 CALM      30.01R
NEW RICHMOND   CLOUDY    74  67  79 S8        30.00R
OSCEOLA        CLOUDY    74  69  85 CALM      30.01S
$$

WIZ003>005-009-010-017-018-120300-
NORTH CENTRAL WISCONSIN

CITY           SKY/WX    TMP DP  RH WIND       PRES   REMARKS
WOODRUFF       CLOUDY    72  63  73 SW10G16   30.05R
RHINELANDER    CLOUDY    69  58  67 SW10      30.07R
EAGLE RIVER    CLOUDY    69  57  64 SW8       30.04R
LAND O LAKES   CLOUDY    70  59  68 SW8       30.04S
PHILLIPS       CLOUDY    67  64  89 S8        30.04S
TOMAHAWK       CLOUDY    69  59  71 S6        30.06S
MEDFORD        CLOUDY    68  62  82 S7        30.05F
MERRILL        CLOUDY    70  59  66 SW6       30.06S
$$

WIZ029-030-035-036-043>047-120300-
CENTRAL WISCONSIN

CITY           SKY/WX    TMP DP  RH WIND       PRES   REMARKS
WAUSAU         CLOUDY    72  58  61 S12       30.05F
MOSINEE        CLOUDY    70  61  73 S7        30.08S
MARSHFIELD     CLOUDY    69  62  78 S9        30.06S
STEVENS POINT  CLOUDY    70  56  61 S6        30.09R
WAUPACA        CLOUDY    71  58  63 CALM      30.09R
WAUTOMA        NOT AVBL
WISC RAPIDS    CLOUDY    72  59  63 S7        30.09R
CAMP DOUGLAS   NOT AVBL
$$

WIZ011>013-019>022-031-037>040-048>050-120300-
NORTHEAST WISCONSIN

CITY           SKY/WX    TMP DP  RH WIND       PRES   REMARKS
ANTIGO         CLOUDY    67  57  69 S9        30.08S
STURGEON BAY   CLOUDY    68  54  60 S8        30.09R
GREEN BAY      MOCLDY    72  57  59 S7        30.08S
MANITOWOC      NOT AVBL
APPLETON       MOCLDY    70  55  60 S7        30.09S
CLINTONVILLE   CLOUDY    72  55  56 SW6       30.08R
OSHKOSH        CLEAR     67  59  75 S8        30.09S
$$

WIZ032>034-041-042-053>061-120300-
SOUTHWEST WISCONSIN

CITY           SKY/WX    TMP DP  RH WIND       PRES   REMARKS
LA CROSSE      CLOUDY    76  66  71 SE6       30.03S
SPARTA         CLOUDY    73  63  70 CALM      30.07R
VIROQUA        CLOUDY    72  64  75 S7        30.07S
BOSCOBEL       CLOUDY    75  64  68 CALM      30.06S
PRAIRIE DU CHI CLOUDY    74  64  69 CALM      30.04S
PLATTEVILLE    CLOUDY    72  64  78 SE8       30.09S
$$

WIZ056-057-062-063-064-067-068-120300-
SOUTH CENTRAL WISCONSIN

CITY           SKY/WX    TMP DP  RH WIND       PRES   REMARKS
BARABOO/DELLS  CLOUDY    69  59  71 CALM      30.09S
LONE ROCK      NOT AVBL
WATERTOWN      PTCLDY    70  56  62 CALM      30.10S
MADISON        MOCLDY    74  58  57 S8        30.10S
MIDDLETON      CLOUDY    74  58  58 S7        30.10S
MONROE         MOCLDY    70  63  78 SE6       30.10F
JANESVILLE     CLOUDY    72  61  68 SE6       30.10S
$$

WIZ051-052-058>065-066-070>072-120300-
SOUTHEAST WISCONSIN

CITY           SKY/WX    TMP DP  RH WIND       PRES   REMARKS
MILWAUKEE      MOCLDY    70  55  59 S5        30.12S
WAUKESHA       PTCLDY    68  54  60 CALM      30.13R
MILWAUKEE/TIMM CLEAR     72  50  46 SE5       30.12S
RACINE         MOCLDY    70  58  65 S5        30.14S
BURLINGTON     MOCLDY    67  60  78 CALM      30.12S
KENOSHA        CLOUDY    71  59  65 SE3       30.13R
FOND DU LAC    CLEAR     66  56  70 S7        30.10S
SHEBOYGAN      CLOUDY    68  52  56 S6        30.11S
WEST BEND      CLOUDY    68  50  52 CALM      30.11S
JUNEAU         PTCLDY    69  42  37 S7        30.12S
$$

LSZ147-162-120300-
LAKE SUPERIOR

STATION/POSITION TIME  TEMP    WIND        PRES    WAVE
                       AIR SEA DIR/SP/G            HT/PER
                 (UTC) (F)     (DEG/KT/KT) (MB)    (FT/S)
W MID LAKE BUOY  0050   49 38  210/  8/  8 1013.3F   1/ 4
PORT WING        0140   72     190/  9/ 12 1013.9R
SAXON HARBOR     0100          200/ 10/ 13 1013.9
$$

LMZ867-665-643>646-120300-
LAKE MICHIGAN

STATION/POSITION TIME  TEMP    WIND        PRES    WAVE
                       AIR SEA DIR/SP/G            HT/PER
                 (UTC) (F)     (DEG/KT/KT) (MB)    (FT/S)
N MID LAKE BUOY  0050   59 53  200/ 14/ 16 1018.3R   3/ 5
NORTHPORT PIER   0100   67     190/  6/ 14 1018.3R
KEWAUNEE LAKESHO 0100   55     180/ 11/ 14 1019.6F
SHEBOYGAN LAKESH 0100   70     180/ 14/ 15 1019.4F
PORT WASHINGTON  0100   62     180/  6/  7 1020.0F
MILWAUKEE LAKESH 0100   63     230/  1/  2   N/A
S MID LAKE BUOY  0050   65 63  120/  6/  8 1020.1F   0
KENOSHA   LAKESH 0100   65     170/  5/  7   N/A
$$

TC  - TEMPERATURE IN CELSIUS
VSB - VISIBILITY IN STATUTE MILES
WCI - WIND CHILL INDEX
HX  - HEAT INDEX




USA.gov is the U.S. government's official web portal to all federal, state and local government web resources and services.